Hebron, NE

5:22 PM CST on February 21, 2018 (GMT -0600)
Hebron Municipal

Weather History for KHJH - November, 2011

Change the Weather History Date:

Friday, November 18, 2011

  Actual Average Record
Temperature  
Mean Temperature 46 °F -  
Max Temperature 59 °F 52 °F 70 °F (1953)
Min Temperature 33 °F 28 °F 5 °F (2014)
Degree Days  
Heating Degree Days 19    
Moisture  
Dew Point 33 °F    
Average Humidity 65    
Maximum Humidity 81    
Minimum Humidity 39    
Precipitation  
Precipitation 0.00 in - - ()
Sea Level Pressure  
Sea Level Pressure 29.70 in    
Wind  
Wind Speed 11 mph (South)    
Max Wind Speed 18 mph    
Max Gust Speed 28 mph    
Visibility 10 miles    
Events      
Averages and records for this station are not official NWS values.
T = Trace of Precipitation, MM = Missing Value Source: NWS Daily Summary

Daily Weather History Graph

Daily Weather History Graph

Search for Another Location

Airport or City:

Trip Planner

Search our weather history database for the weather conditions in past years. The results will help you decide how hot, cold, wet, or windy it might be!

Date:

Astronomy

Nov. 18, 2011 Rise Set
Actual Time 7:19 AM CST 5:11 PM CST
Civil Twilight 6:49 AM CST 5:40 PM CST
Nautical Twilight 6:16 AM CST 6:13 PM CST
Astronomical Twilight 5:44 AM CST 6:46 PM CST
Moon No Moon Rise 12:58 PM CST (11/18)
Length of Visible Light 10h 51m
Length of Day
9h 52m
Waning Gibbous, 49% of the Moon is Illuminated
Nov 18
Waning Gibbous
Nov 25
New
Dec 2
First Quarter
Dec 10
Full
Dec 17
Last Quarter

Hourly Weather History & Observations

Time (CST) Temp. Windchill Dew Point Humidity Pressure Visibility Wind Dir Wind Speed Gust Speed Precip Events Conditions
12:15 AM 37.4 °F 29.8 °F 28.4 °F 70% 29.86 in 10.0 mi South 11.5 mph 18.4 mph N/A   Clear
12:35 AM 37.4 °F 30.3 °F 28.4 °F 70% 29.86 in 10.0 mi South 10.4 mph - N/A   Clear
12:55 AM 37.4 °F 31.4 °F 28.4 °F 70% 29.85 in 10.0 mi South 8.1 mph - N/A   Clear
1:15 AM 37.4 °F 29.8 °F 28.4 °F 70% 29.83 in 10.0 mi South 11.5 mph 18.4 mph N/A   Clear
1:35 AM 37.4 °F 30.3 °F 28.4 °F 70% 29.83 in 10.0 mi South 10.4 mph - N/A   Clear
1:55 AM 37.4 °F 28.9 °F 28.4 °F 70% 29.82 in 10.0 mi South 13.8 mph 19.6 mph N/A   Clear
2:35 AM 37.4 °F 29.3 °F 28.4 °F 70% 29.82 in 10.0 mi South 12.7 mph 18.4 mph N/A   Clear
2:55 AM 37.4 °F 29.3 °F 28.4 °F 70% 29.82 in 10.0 mi SSW 12.7 mph - N/A   Clear
3:15 AM 37.4 °F 29.3 °F 28.4 °F 70% 29.81 in 10.0 mi South 12.7 mph 18.4 mph N/A   Clear
3:35 AM 37.4 °F 30.3 °F 28.4 °F 70% 29.80 in 10.0 mi South 10.4 mph 16.1 mph N/A   Clear
3:55 AM 37.4 °F 31.4 °F 28.4 °F 70% 29.80 in 10.0 mi South 8.1 mph 16.1 mph N/A   Clear
4:15 AM 37.4 °F 30.8 °F 28.4 °F 70% 29.79 in 10.0 mi SSW 9.2 mph 16.1 mph N/A   Clear
4:35 AM 35.6 °F 28.0 °F 28.4 °F 75% 29.78 in 10.0 mi South 10.4 mph - N/A   Clear
4:55 AM 37.4 °F 30.3 °F 30.2 °F 75% 29.77 in 10.0 mi South 10.4 mph - N/A   Clear
5:15 AM 37.4 °F 32.8 °F 30.2 °F 75% 29.77 in 10.0 mi South 5.8 mph - N/A   Clear
5:35 AM 37.4 °F 31.4 °F 30.2 °F 75% 29.76 in 10.0 mi South 8.1 mph 17.3 mph N/A   Clear
5:55 AM 35.6 °F 28.6 °F 30.2 °F 81% 29.76 in 10.0 mi South 9.2 mph - N/A   Clear
6:35 AM 35.6 °F 29.2 °F 28.4 °F 75% 29.75 in 10.0 mi South 8.1 mph - N/A   Clear
6:55 AM 35.6 °F 29.2 °F 28.4 °F 75% 29.75 in 10.0 mi South 8.1 mph - N/A   Clear
7:15 AM 33.8 °F 25.8 °F 28.4 °F 81% 29.74 in 10.0 mi South 10.4 mph - N/A   Clear
7:35 AM 35.6 °F 28.0 °F 30.2 °F 81% 29.74 in 10.0 mi South 10.4 mph 16.1 mph N/A   Clear
8:15 AM 37.4 °F 28.5 °F 30.2 °F 75% 29.73 in 10.0 mi South 15.0 mph 19.6 mph N/A   Clear
8:35 AM 39.2 °F 31.6 °F 30.2 °F 70% 29.73 in 10.0 mi South 12.7 mph 19.6 mph N/A   Clear
8:55 AM 39.2 °F 31.6 °F 32.0 °F 75% 29.73 in 10.0 mi South 12.7 mph 18.4 mph N/A   Clear
9:35 AM 44.6 °F 37.8 °F 32.0 °F 61% 29.71 in 10.0 mi South 15.0 mph 23.0 mph N/A   Clear
9:55 AM 46.4 °F 40.7 °F 32.0 °F 57% 29.71 in 10.0 mi SSW 12.7 mph 24.2 mph N/A   Clear
10:15 AM 46.4 °F 39.2 °F 32.0 °F 57% 29.71 in 10.0 mi SSW 18.4 mph 27.6 mph N/A   Clear
10:35 AM 48.2 °F - 32.0 °F 54% 29.70 in 10.0 mi SSW 11.5 mph 25.3 mph N/A   Clear
10:55 AM 50.0 °F - 32.0 °F 50% 29.70 in 10.0 mi SSW 15.0 mph 23.0 mph N/A   Clear
11:15 AM 50.0 °F - 32.0 °F 50% 29.69 in 10.0 mi SSW 15.0 mph 23.0 mph N/A   Clear
11:35 AM 51.8 °F - 32.0 °F 47% 29.69 in 10.0 mi SSW 16.1 mph 24.2 mph N/A   Clear
11:55 AM 51.8 °F - 32.0 °F 47% 29.68 in 10.0 mi SSW 13.8 mph 21.9 mph N/A   Clear
12:15 PM 53.6 °F - 32.0 °F 44% 29.66 in 10.0 mi SSW 16.1 mph 21.9 mph N/A   Clear
12:35 PM 55.4 °F - 32.0 °F 41% 29.65 in 10.0 mi SW 17.3 mph 24.2 mph N/A   Clear
12:55 PM 55.4 °F - 32.0 °F 41% 29.64 in 10.0 mi SSW 17.3 mph 25.3 mph N/A   Clear
1:35 PM 57.2 °F - 33.8 °F 41% 29.63 in 10.0 mi SSW 17.3 mph 24.2 mph N/A   Clear
1:55 PM 57.2 °F - 33.8 °F 41% 29.62 in 10.0 mi SSW 13.8 mph 23.0 mph N/A   Clear
2:15 PM 57.2 °F - 33.8 °F 41% 29.62 in 10.0 mi SSW 12.7 mph 24.2 mph N/A   Clear
2:55 PM 59.0 °F - 33.8 °F 39% 29.62 in 10.0 mi SSW 13.8 mph 19.6 mph N/A   Clear
3:15 PM 59.0 °F - 33.8 °F 39% 29.61 in 10.0 mi SSW 11.5 mph 20.7 mph N/A   Clear
3:55 PM 59.0 °F - 33.8 °F 39% 29.60 in 10.0 mi South 11.5 mph 17.3 mph N/A   Clear
4:15 PM 59.0 °F - 33.8 °F 39% 29.61 in 10.0 mi SSW 9.2 mph 17.3 mph N/A   Clear
4:35 PM 57.2 °F - 35.6 °F 44% 29.61 in 10.0 mi South 8.1 mph - N/A   Clear
5:15 PM 53.6 °F - 35.6 °F 51% 29.61 in 10.0 mi South 8.1 mph - N/A   Clear
5:35 PM 51.8 °F - 35.6 °F 54% 29.61 in 10.0 mi South 8.1 mph - N/A   Clear
5:55 PM 50.0 °F - 35.6 °F 58% 29.61 in 10.0 mi SSE 4.6 mph - N/A   Clear
6:15 PM 50.0 °F - 37.4 °F 62% 29.62 in 10.0 mi South 5.8 mph - N/A   Clear
6:35 PM 50.0 °F - 37.4 °F 62% 29.63 in 10.0 mi Calm Calm - N/A   Clear
6:55 PM 46.4 °F - 35.6 °F 66% 29.63 in 10.0 mi Calm Calm - N/A   Clear
7:15 PM 44.6 °F 42.2 °F 35.6 °F 71% 29.64 in 10.0 mi SSE 4.6 mph - N/A   Clear
7:35 PM 44.6 °F - 35.6 °F 71% 29.64 in 10.0 mi Calm Calm - N/A   Clear
7:55 PM 41.0 °F - 35.6 °F 81% 29.65 in 10.0 mi Calm Calm - N/A   Clear
8:15 PM 41.0 °F 36.4 °F 35.6 °F 81% 29.64 in 10.0 mi SE 6.9 mph - N/A   Clear
8:55 PM 46.4 °F 42.9 °F 41.0 °F 81% 29.64 in 10.0 mi SSE 6.9 mph - N/A   Clear
9:15 PM 46.4 °F 42.4 °F 41.0 °F 81% 29.63 in 10.0 mi SSE 8.1 mph - N/A   Clear
9:35 PM 46.4 °F 42.9 °F 41.0 °F 81% 29.63 in 10.0 mi SSE 6.9 mph - N/A   Clear
9:55 PM 44.6 °F 40.2 °F 39.2 °F 81% 29.62 in 10.0 mi SSE 8.1 mph - N/A   Clear
10:15 PM 44.6 °F 40.7 °F 39.2 °F 81% 29.61 in 10.0 mi SSE 6.9 mph - N/A   Clear
10:35 PM 44.6 °F 40.7 °F 39.2 °F 81% 29.61 in 10.0 mi SSE 6.9 mph - N/A   Clear
10:55 PM 44.6 °F 40.2 °F 39.2 °F 81% 29.61 in 10.0 mi SSE 8.1 mph - N/A   Clear
11:15 PM 44.6 °F 39.7 °F 39.2 °F 81% 29.59 in 10.0 mi SSE 9.2 mph - N/A   Clear
11:35 PM 44.6 °F 40.7 °F 39.2 °F 81% 29.59 in 10.0 mi SSE 6.9 mph - N/A   Clear
11:55 PM 44.6 °F 41.4 °F 39.2 °F 81% 29.58 in 10.0 mi SE 5.8 mph - N/A   Clear